Showing default

OV1-9, 2610

Orbit data source: Space-Track

OV1-9, 2610 is a payload satellite owned by USAF OAR (US) in LEO that was launched on Sun, 11 Dec 1966 UTC via an ATLAS D launch vehicle from the Air Force Western Test Range (AFWTR). Payload-class satellites include a variety of spacecraft equipped with specific instruments for various scientific and technological missions. These include communications satellites like Starlink; space stations such as the ISS; scientific satellites like the Hubble; Earth observation satellites from companies like Planet Labs, Umbra, and HawkEye 360; GPS; miniature CubeSats for education and research; and military/defense satellites.

Loading next visibility...
Identifier
2610, 1966-111A
Orbit
LEO
Country
Flag of USUS
Related business
Manufacturer
GD/Convair
Mission
Spacecraft
Bus & Motor
OV1, Unknown motor
Mass
106 kg wet, 106 kg dry
Launch date (UTC)
1966-12-11 (59 years ago)
Launch vehicle
ATLAS D
Launch site
Air Force Western Test Range (AFWTR)
Object type
Payload
Rocket body
Debris
Shape & HBR
Unknown
Radar Cross Section
Medium (>0.1 m² and <1 m²)

Expand to show TLE details & history
Last TLE update: 1 day ago

TLE from 1 day ago
0 OV1-9
1 02610U 66111A   25308.69192545  .00001182  00000-0  46987-3 0  9992
2 02610  99.1108 211.9092 2274842   0.6708 359.6595 10.39548825209708
Epoch: 2025-11-04T16:36Z
TLE epoch observation values (Epoch: 2025-11-04T16:36:22.358Z)
Latitude
-0.00011°
Longitude
-81.35925°
Altitude
475.025 km
Speed
8.451 km/s
True Right ascension
14h 07m 38s
True Declination
0° 00' 00"
Sunlit
Object was in daylight at epoch
Visualization orbit readout
Latitude
Unknown
Longitude
Unknown
Altitude
Unknown
Speed
Unknown
Apparent Right ascension
Unknown
Apparent Declination
Unknown
Sunlit
N/A
Visualization observer readout
Local Sidereal Time
18:35:04
Azimuth
Unknown
Elevation
Unknown
Doppler factor
Unknown
Orbital elements
Apogee altitude
4,504.471 km
Perigee altitude
470.82 km
Semi-major axis
8,865.782 km
Eccentricity
0.22748
Inclination
99.1108°
RAAN
211.9092°
Arg. of periapsis
0.6708°
True anomaly
359.4444°
Mean anomaly
359.6595°
Eccentric anomaly
359.55923°
Mean motion
2.59997 °/min
Orbital period
138.46 mins
BSTAR
0.00046987
Loading maneuver chart data...
Computing Atmospheric mass density...
Loading historical data...
Loading historical data...
Loading historical data...
Loading historical data...
Loading historical data...
Loading historical data...
Loading historical data...
Other satellites on launch #111 in the year 1966 (1966-12-11 UTC)

Documentation

Showing up to 5 results
|